Boscobel, WI

8:11 PM CDT on July 23, 2017 (GMT -0500)
Boscobel

Weather History for KOVS - September, 2013

Change the Weather History Date:

Wednesday, September 4, 2013

  Actual Average (KPDC) Record (KPDC)
Temperature  
Mean Temperature 70 °F -  
Max Temperature 88 °F 80 °F 95 °F (1954)
Min Temperature 51 °F 55 °F 39 °F (1974)
Cooling Degree Days 4    
Growing Degree Days 20 (Base 50)    
Moisture  
Dew Point 54 °F    
Average Humidity 87    
Maximum Humidity 100    
Minimum Humidity 46    
Precipitation  
Precipitation 0.00 in - - ()
Sea Level Pressure  
Sea Level Pressure 30.07 in    
Wind  
Wind Speed 2 mph (SW)    
Max Wind Speed 7 mph    
Max Gust Speed -    
Visibility 4 miles    
Events Fog    
Averages and records for this station are not official NWS values.
T = Trace of Precipitation, MM = Missing Value Source: NWS Daily Summary

Daily Weather History Graph

Daily Weather History Graph

Search for Another Location

Airport or City:

Trip Planner

Search our weather history database for the weather conditions in past years. The results will help you decide how hot, cold, wet, or windy it might be!

Date:

Astronomy

Sep. 04, 2013 Rise Set
Actual Time 6:30 AM CDT 7:31 PM CDT
Civil Twilight 6:01 AM CDT 8:00 PM CDT
Nautical Twilight 5:26 AM CDT 8:35 PM CDT
Astronomical Twilight 4:50 AM CDT 9:11 PM CDT
Moon 5:42 AM CDT (9/4) 6:50 PM CDT (9/4)
Length of Visible Light 13h 59m
Length of Day
13h 01m
Waning Crescent, 1% of the Moon is Illuminated
Sep 4
Waning Crescent
Sep 5
New
Sep 12
First Quarter
Sep 19
Full
Sep 26
Last Quarter

Hourly Weather History & Observations

Time (CDT) Temp. Heat Index Dew Point Humidity Pressure Visibility Wind Dir Wind Speed Gust Speed Precip Events Conditions
12:01 AM 52.0 °F - 50.0 °F 93% 30.06 in 0.5 mi Calm Calm - N/A Fog Fog
12:05 AM 52.0 °F - 51.1 °F 97% 30.06 in 1.5 mi Calm Calm - N/A   Clear
12:07 AM 52.0 °F - 50.0 °F 93% 30.06 in 4.0 mi Calm Calm - N/A   Clear
12:28 AM 51.1 °F - 50.0 °F 96% 30.06 in 4.0 mi Calm Calm - N/A   Scattered Clouds
12:30 AM 52.0 °F - 50.0 °F 93% 30.06 in 1.2 mi Calm Calm - N/A   Scattered Clouds
12:37 AM 52.0 °F - 51.1 °F 97% 30.06 in 0.5 mi Calm Calm - N/A Fog Fog
12:53 AM 51.1 °F - 50.0 °F 96% 30.06 in 1.0 mi Calm Calm - N/A   Mist
1:00 AM 52.0 °F - 50.0 °F 93% 30.06 in 0.8 mi Calm Calm - N/A   Mist
1:03 AM 51.1 °F - 50.0 °F 96% 30.06 in 1.2 mi Calm Calm - N/A   Scattered Clouds
1:05 AM 51.1 °F - 50.0 °F 96% 30.06 in 2.0 mi Calm Calm - N/A   Mostly Cloudy
1:12 AM 51.1 °F - 48.9 °F 92% 30.06 in 9.0 mi Calm Calm - N/A   Mostly Cloudy
1:24 AM 53.1 °F - 51.1 °F 93% 30.06 in 2.5 mi SSW 3.5 mph - N/A   Overcast
1:32 AM 52.0 °F - 51.1 °F 97% 30.06 in 8.0 mi SSW 3.5 mph - N/A   Mostly Cloudy
1:53 AM 53.1 °F - 51.1 °F 93% 29.53 in 10.0 mi West 3.5 mph - N/A   Mostly Cloudy
2:00 AM 54.0 °F - 52.0 °F 93% 30.06 in 1.8 mi WSW 4.6 mph - N/A   Mostly Cloudy
2:04 AM 53.1 °F - 52.0 °F 96% 30.06 in 0.8 mi Calm Calm - N/A   Mist
2:11 AM 51.1 °F - 50.0 °F 96% 30.07 in 1.2 mi Calm Calm - N/A   Overcast
2:14 AM 51.1 °F - 50.0 °F 96% 30.07 in 3.0 mi Calm Calm - N/A   Overcast
2:44 AM 52.0 °F - 51.1 °F 97% 30.07 in 1.8 mi SW 4.6 mph - N/A   Overcast
2:48 AM 51.8 °F - 51.8 °F 100% 30.08 in 0.8 mi SW 3.5 mph - N/A   Overcast
2:53 AM 53.1 °F - 52.0 °F 96% 30.08 in 0.5 mi SW 3.5 mph - N/A Fog Fog
3:23 AM 53.1 °F - 51.1 °F 93% 30.08 in 1.2 mi SW 3.5 mph - N/A   Overcast
3:32 AM 53.1 °F - 52.0 °F 96% 30.09 in 0.8 mi SW 3.5 mph - N/A   Overcast
3:53 AM 52.0 °F - 51.1 °F 97% 30.09 in 0.2 mi Calm Calm - N/A Fog Fog
4:12 AM 51.1 °F - 50.0 °F 96% 30.09 in 1.2 mi SW 3.5 mph - N/A   Overcast
4:20 AM 53.1 °F - 51.1 °F 93% 30.09 in 0.8 mi WSW 4.6 mph - N/A   Mist
4:35 AM 52.0 °F - 51.1 °F 97% 30.09 in 1.2 mi SW 3.5 mph - N/A   Overcast
4:39 AM 51.1 °F - 50.0 °F 96% 30.09 in 3.0 mi SW 3.5 mph - N/A   Overcast
4:53 AM 51.1 °F - 48.9 °F 92% 29.53 in 9.0 mi SW 3.5 mph - N/A   Overcast
4:57 AM 51.1 °F - 50.0 °F 96% 30.10 in 1.5 mi SW 4.6 mph - N/A   Overcast
4:59 AM 52.0 °F - 50.0 °F 93% 30.10 in 0.8 mi WSW 3.5 mph - N/A   Overcast
5:20 AM 52.0 °F - 51.1 °F 97% 30.10 in 1.0 mi SW 3.5 mph - N/A   Mist
5:27 AM 51.1 °F - 50.0 °F 96% 30.10 in 2.0 mi Calm Calm - N/A   Overcast
5:34 AM 51.1 °F - 50.0 °F 96% 30.11 in 6.0 mi SW 3.5 mph - N/A   Mostly Cloudy
5:37 AM 51.1 °F - 50.0 °F 96% 30.11 in 1.2 mi SW 3.5 mph - N/A   Mostly Cloudy
5:39 AM 51.1 °F - 50.0 °F 96% 30.11 in 0.8 mi SW 3.5 mph - N/A   Mist
5:53 AM 51.1 °F - 50.0 °F 96% 30.11 in 0.2 mi Calm Calm - N/A Fog Fog
6:53 AM 52.0 °F - 50.0 °F 93% 30.13 in 0.2 mi WSW 4.6 mph - N/A Fog Fog
6:59 AM 53.1 °F - 51.1 °F 93% 30.13 in 1.5 mi West 4.6 mph - N/A   Mostly Cloudy
7:01 AM 53.1 °F - 51.1 °F 93% 30.13 in 3.0 mi West 3.5 mph - N/A   Mostly Cloudy
7:09 AM 53.1 °F - 52.0 °F 96% 30.13 in 7.0 mi West 3.5 mph - N/A   Scattered Clouds
7:53 AM 55.0 °F - 53.1 °F 93% 30.14 in 10.0 mi SSW 3.5 mph - N/A   Clear
8:53 AM 62.1 °F - 55.9 °F 80% 30.13 in 10.0 mi Calm Calm - N/A   Clear
9:53 AM 70.0 °F - 55.0 °F 59% 30.13 in 10.0 mi SSW 6.9 mph - N/A   Clear
10:53 AM 75.0 °F - 57.0 °F 53% 30.13 in 10.0 mi SSW 5.8 mph - N/A   Clear
11:53 AM 81.0 °F 81.7 °F 61.0 °F 50% 30.12 in 10.0 mi Variable 3.5 mph - N/A   Clear
12:53 PM 82.9 °F 83.7 °F 62.1 °F 49% 30.11 in 10.0 mi Variable 3.5 mph - N/A   Clear
1:53 PM 86.0 °F 87.3 °F 64.0 °F 48% 30.11 in 10.0 mi Variable 6.9 mph - N/A   Clear
2:53 PM 87.1 °F 88.3 °F 64.0 °F 46% 30.09 in 10.0 mi West 5.8 mph - N/A   Clear
3:53 PM 88.0 °F 89.6 °F 64.9 °F 46% 30.08 in 10.0 mi West 4.6 mph - N/A   Clear
4:53 PM 87.1 °F 88.9 °F 64.9 °F 48% 30.07 in 10.0 mi WSW 4.6 mph - N/A   Clear
5:53 PM 86.0 °F 88.2 °F 66.0 °F 51% 30.06 in 10.0 mi WNW 3.5 mph - N/A   Clear
6:53 PM 81.0 °F 84.4 °F 70.0 °F 69% 30.07 in 10.0 mi Calm Calm - N/A   Clear
7:53 PM 73.9 °F - 69.1 °F 85% 30.08 in 10.0 mi Calm Calm - N/A   Clear
8:53 PM 71.1 °F - 68.0 °F 90% 30.09 in 10.0 mi Calm Calm - N/A   Clear
9:53 PM 70.0 °F - 68.0 °F 93% 30.10 in 7.0 mi Calm Calm - N/A   Scattered Clouds
10:53 PM 69.1 °F - 66.9 °F 93% 30.10 in 5.0 mi Calm Calm - N/A   Scattered Clouds
11:53 PM 66.9 °F - 66.0 °F 97% 30.11 in 3.0 mi Calm Calm - N/A   Clear